Location: Bannatyne
(13.0833°N, 59.5333°W)
Time: 14:23:15
(UTC+00:00)

Vanguard 2 Rocket - Pass Details

Date: 27 January 2020
Orbit: 554 x 3326 km, 32.9° (Epoch: 29 March)

Event Time Altitude Azimuth Distance (km) Brightness Sun altitude
Rises 16:26:33 0° 285° (WNW) 5,043 10.7 58.2°
Reaches altitude 10° 16:29:38 10° 278° (W) 4,383 10.5 58.1°
Maximum altitude 16:41:36 42° 212° (SSW) 3,486 11.6 57.5°
Drops below altitude 10° 16:59:10 10° 148° (SSE) 6,243 11.6 56.3°
Sets 17:04:46 0° 142° (SE) 7,310 11.7 55.8°
